CES552 EGLL-ZSPD

Flight info

Callsign CES552
Flight time N/A
Altitude 35000
Route DET L6 DVR UL9 KONAN UL607 MATUG DCT BOMBI DCT LEPSA DCT RTB DCT PINQI DCT PESAT DCT TEGRI DCT OSTAL DCT LUGEB DCT UDROS/N0489F370 UM859 KARDE UN644 ROLIN N644 ADEKI DCT LEYLA N161 GASBI/K0904F370 N161 ARKAM/K0895F390 N161 SARIN/K0887S1190 A368 FKG W188 LIKMI DCT DKO/K0893S1250 W64 LAXIB W560 TODAM B208 HFE R343 SASAN SAS81A
Aircraft A359/H-SDE2E3GHIJ3J4J5LM1ORWXY/LB1D1

Departure

Time 2026-05-05 12:15
Airport London Heathrow Airport (EGLL)

Arrival

Time N/A
Airport Shanghai Pudong International Airport (ZSPD)
Time Latitude Longitude Altitude Speed Heading
2026-05-05 11:32 51.47433 -0.46411 92 ft 0 kts 179°
2026-05-05 11:54 51.47442 -0.46411 95 ft 4 kts 179°
2026-05-05 11:55 51.47469 -0.46411 93 ft 4 kts 179°
2026-05-05 11:55 51.47492 -0.46412 92 ft 4 kts 184°
2026-05-05 11:55 51.47513 -0.46401 93 ft 4 kts 245°
2026-05-05 11:55 51.47516 -0.46360 92 ft 4 kts 271°
2026-05-05 11:56 51.47516 -0.46349 91 ft 0 kts 269°
2026-05-05 12:00 51.47516 -0.46360 92 ft 4 kts 269°
2026-05-05 12:01 51.47516 -0.46406 94 ft 5 kts 270°
2026-05-05 12:01 51.47516 -0.46463 94 ft 6 kts 270°
2026-05-05 12:01 51.47516 -0.46533 96 ft 7 kts 269°
2026-05-05 12:01 51.47515 -0.46609 92 ft 8 kts 269°
2026-05-05 12:02 51.47512 -0.46700 93 ft 8 kts 258°
2026-05-05 12:02 51.47498 -0.46792 97 ft 9 kts 263°
2026-05-05 12:02 51.47476 -0.46880 96 ft 8 kts 223°
2026-05-05 12:02 51.47421 -0.46886 95 ft 8 kts 168°
2026-05-05 12:03 51.47363 -0.46869 94 ft 9 kts 175°
2026-05-05 12:03 51.47298 -0.46867 92 ft 9 kts 180°
2026-05-05 12:03 51.47233 -0.46868 94 ft 10 kts 179°
2026-05-05 12:03 51.47161 -0.46865 92 ft 11 kts 179°
2026-05-05 12:04 51.47082 -0.46863 96 ft 12 kts 180°
2026-05-05 12:04 51.47001 -0.46862 92 ft 12 kts 179°
2026-05-05 12:04 51.46964 -0.46862 95 ft 0 kts 180°
2026-05-05 12:05 51.46949 -0.46862 95 ft 6 kts 180°
2026-05-05 12:05 51.46902 -0.46862 95 ft 8 kts 180°
2026-05-05 12:06 51.46845 -0.46862 95 ft 9 kts 180°
2026-05-05 12:06 51.46784 -0.46865 95 ft 9 kts 189°
2026-05-05 12:06 51.46748 -0.46931 97 ft 8 kts 259°
2026-05-05 12:06 51.46746 -0.47022 96 ft 9 kts 269°
2026-05-05 12:07 51.46746 -0.47114 96 ft 9 kts 270°
2026-05-05 12:07 51.46746 -0.47185 96 ft 10 kts 270°
2026-05-05 12:07 51.46746 -0.47287 96 ft 11 kts 270°
2026-05-05 12:07 51.46746 -0.47411 96 ft 11 kts 270°
2026-05-05 12:08 51.46745 -0.47542 95 ft 12 kts 270°
2026-05-05 12:08 51.46745 -0.47671 95 ft 13 kts 270°
2026-05-05 12:08 51.46745 -0.47812 92 ft 13 kts 270°
2026-05-05 12:08 51.46745 -0.47964 92 ft 14 kts 270°
2026-05-05 12:09 51.46743 -0.48116 93 ft 14 kts 269°
2026-05-05 12:09 51.46742 -0.48279 92 ft 15 kts 270°
2026-05-05 12:09 51.46742 -0.48443 96 ft 15 kts 270°
2026-05-05 12:09 51.46741 -0.48611 92 ft 15 kts 269°
2026-05-05 12:10 51.46721 -0.48722 97 ft 8 kts 215°
2026-05-05 12:10 51.46701 -0.48736 97 ft 0 kts 200°
2026-05-05 12:11 51.46660 -0.48748 95 ft 9 kts 184°
2026-05-05 12:11 51.46614 -0.48761 96 ft 0 kts 196°
2026-05-05 12:13 51.46582 -0.48775 95 ft 8 kts 193°
2026-05-05 12:13 51.46524 -0.48778 95 ft 8 kts 168°
2026-05-05 12:13 51.46482 -0.48723 97 ft 8 kts 116°
2026-05-05 12:13 51.46478 -0.48636 94 ft 8 kts 90°
2026-05-05 12:14 51.46479 -0.48439 93 ft 39 kts 89°
2026-05-05 12:14 51.46482 -0.47743 96 ft 97 kts 89°
2026-05-05 12:14 51.46490 -0.46490 97 ft 147 kts 90°
2026-05-05 12:14 51.46512 -0.44674 171 ft 187 kts 84°
2026-05-05 12:15 51.46522 -0.43229 326 ft 203 kts 88°
2026-05-05 12:15 51.46508 -0.40859 757 ft 220 kts 89°
2026-05-05 12:15 51.46233 -0.38492 1471 ft 217 kts 114°
2026-05-05 12:15 51.44990 -0.35783 1882 ft 239 kts 122°
2026-05-05 12:16 51.44430 -0.34237 2100 ft 245 kts 113°
2026-05-05 12:16 51.43711 -0.31696 2634 ft 248 kts 110°
2026-05-05 12:16 51.43070 -0.29153 3183 ft 251 kts 108°
2026-05-05 12:16 51.42593 -0.26608 3661 ft 253 kts 101°
2026-05-05 12:17 51.42181 -0.23709 4303 ft 254 kts 100°
2026-05-05 12:17 51.41799 -0.20969 4965 ft 254 kts 101°
2026-05-05 12:17 51.41405 -0.18188 5539 ft 255 kts 101°
2026-05-05 12:17 51.41016 -0.15400 6041 ft 262 kts 101°
2026-05-05 12:18 51.40622 -0.12520 6127 ft 268 kts 102°
2026-05-05 12:18 51.40217 -0.09623 6025 ft 266 kts 101°
2026-05-05 12:18 51.39814 -0.06744 6000 ft 264 kts 101°
2026-05-05 12:18 51.39413 -0.03859 5999 ft 264 kts 102°
2026-05-05 12:19 51.39015 -0.00998 6024 ft 265 kts 101°
2026-05-05 12:19 51.38611 0.01905 6119 ft 268 kts 102°
2026-05-05 12:19 51.38208 0.04793 6500 ft 269 kts 102°
2026-05-05 12:19 51.37788 0.07761 7074 ft 271 kts 103°
2026-05-05 12:20 51.37103 0.10546 7545 ft 276 kts 123°
2026-05-05 12:20 51.35719 0.12661 8080 ft 279 kts 150°
2026-05-05 12:20 51.33897 0.13734 8613 ft 282 kts 166°
2026-05-05 12:20 51.32012 0.14620 9202 ft 285 kts 156°
2026-05-05 12:21 51.30402 0.16446 9745 ft 285 kts 130°
2026-05-05 12:21 51.29439 0.19206 10138 ft 288 kts 106°
2026-05-05 12:21 51.29045 0.22367 10318 ft 294 kts 97°
2026-05-05 12:21 51.28786 0.25683 10552 ft 307 kts 96°
2026-05-05 12:22 51.28540 0.29033 10809 ft 318 kts 96°
2026-05-05 12:22 51.28279 0.32639 11134 ft 328 kts 96°
2026-05-05 12:22 51.28014 0.36321 11489 ft 336 kts 96°
2026-05-05 12:22 51.27734 0.40128 11887 ft 342 kts 96°
2026-05-05 12:23 51.27451 0.43932 12224 ft 350 kts 96°
2026-05-05 12:23 51.27161 0.47867 12495 ft 359 kts 96°
2026-05-05 12:23 51.26869 0.51824 12742 ft 368 kts 96°
2026-05-05 12:23 51.26566 0.55928 12980 ft 376 kts 96°
2026-05-05 12:24 51.26260 0.60107 13275 ft 382 kts 96°
2026-05-05 12:24 51.25950 0.64336 13689 ft 384 kts 96°
2026-05-05 12:24 51.25637 0.68553 14094 ft 386 kts 96°
2026-05-05 12:24 51.25322 0.72865 14360 ft 392 kts 96°
2026-05-05 12:25 51.25008 0.77173 14723 ft 393 kts 96°
2026-05-05 12:25 51.24696 0.81441 15107 ft 394 kts 96°
2026-05-05 12:25 51.24382 0.85783 15455 ft 397 kts 96°
2026-05-05 12:25 51.24060 0.90249 15812 ft 399 kts 96°
2026-05-05 12:26 51.23741 0.94652 16175 ft 402 kts 96°
2026-05-05 12:26 51.23421 0.99160 16506 ft 405 kts 96°
2026-05-05 12:26 51.23115 1.03571 16880 ft 407 kts 96°
2026-05-05 12:26 51.22803 1.08113 17294 ft 408 kts 96°
2026-05-05 12:27 51.22498 1.12571 17560 ft 413 kts 96°
2026-05-05 12:27 51.22187 1.17138 17937 ft 414 kts 96°
2026-05-05 12:27 51.21878 1.21720 18320 ft 415 kts 96°
2026-05-05 12:27 51.21568 1.26333 18571 ft 419 kts 96°
2026-05-05 12:28 51.21264 1.30946 18970 ft 418 kts 96°
2026-05-05 12:28 51.20973 1.35546 19551 ft 412 kts 96°
2026-05-05 12:28 51.20695 1.40066 20135 ft 407 kts 97°
2026-05-05 12:28 51.20434 1.44528 20749 ft 402 kts 97°
2026-05-05 12:29 51.20195 1.48940 21359 ft 396 kts 96°
2026-05-05 12:29 51.19956 1.53277 21999 ft 390 kts 97°
2026-05-05 12:29 51.19732 1.57513 22647 ft 384 kts 97°
2026-05-05 12:29 51.19533 1.61464 23257 ft 379 kts 96°
2026-05-05 12:30 51.19334 1.65485 23864 ft 372 kts 97°
2026-05-05 12:30 51.19134 1.69582 24435 ft 365 kts 96°
2026-05-05 12:30 51.18951 1.73569 25019 ft 357 kts 97°
2026-05-05 12:30 51.18677 1.77424 25605 ft 347 kts 100°
2026-05-05 12:31 51.18336 1.81204 26227 ft 336 kts 101°
2026-05-05 12:31 51.17984 1.84842 26772 ft 327 kts 102°
2026-05-05 12:31 51.17624 1.88391 27081 ft 326 kts 102°
2026-05-05 12:31 51.17255 1.91941 27161 ft 330 kts 102°
2026-05-05 12:32 51.16885 1.95467 27257 ft 334 kts 102°
2026-05-05 12:32 51.16500 1.99128 27364 ft 338 kts 102°
2026-05-05 12:32 51.16104 2.02901 27502 ft 341 kts 102°
2026-05-05 12:32 51.15712 2.06659 27639 ft 344 kts 102°
2026-05-05 12:33 51.15319 2.10430 27771 ft 348 kts 102°
2026-05-05 12:33 51.14919 2.14258 27867 ft 353 kts 102°
2026-05-05 12:33 51.14511 2.18149 27995 ft 357 kts 102°
2026-05-05 12:33 51.14107 2.21997 28100 ft 361 kts 102°
2026-05-05 12:34 51.13684 2.25994 28240 ft 365 kts 102°
2026-05-05 12:34 51.13258 2.30015 28375 ft 369 kts 102°
2026-05-05 12:34 51.12827 2.34069 28487 ft 373 kts 102°
2026-05-05 12:34 51.12394 2.38129 28612 ft 377 kts 102°
2026-05-05 12:35 51.11497 2.46489 28811 ft 387 kts 102°
2026-05-05 12:35 51.11041 2.50723 28931 ft 391 kts 102°
2026-05-05 12:35 51.10578 2.54998 29063 ft 395 kts 102°
2026-05-05 12:36 51.10111 2.59302 29177 ft 399 kts 102°
2026-05-05 12:36 51.09621 2.63670 29315 ft 403 kts 104°
2026-05-05 12:36 51.08962 2.67923 29436 ft 406 kts 108°
2026-05-05 12:36 51.08195 2.72322 29565 ft 410 kts 108°
2026-05-05 12:37 51.07422 2.76633 29705 ft 413 kts 108°
2026-05-05 12:37 51.06619 2.81040 29840 ft 417 kts 108°
2026-05-05 12:37 51.05961 2.84636 29946 ft 421 kts 108°
2026-05-05 12:37 51.05187 2.88852 30052 ft 424 kts 109°
2026-05-05 12:38 51.04321 2.93470 30183 ft 427 kts 108°
2026-05-05 12:38 51.03504 2.97945 30344 ft 430 kts 108°
2026-05-05 12:38 51.02674 3.02507 30467 ft 433 kts 108°
2026-05-05 12:38 51.01836 3.07099 30628 ft 435 kts 108°
2026-05-05 12:39 51.00965 3.11846 30788 ft 438 kts 109°
2026-05-05 12:39 51.00109 3.16490 30931 ft 441 kts 109°
2026-05-05 12:39 50.99240 3.21184 31062 ft 444 kts 109°
2026-05-05 12:39 50.98360 3.25917 31165 ft 448 kts 109°
2026-05-05 12:40 50.97486 3.30611 31292 ft 451 kts 109°
2026-05-05 12:40 50.96595 3.35381 31422 ft 454 kts 110°
2026-05-05 12:40 50.95698 3.40169 31567 ft 457 kts 110°
2026-05-05 12:40 50.94805 3.44928 31686 ft 460 kts 110°
2026-05-05 12:41 50.93894 3.49767 31806 ft 463 kts 110°
2026-05-05 12:41 50.92974 3.54649 31922 ft 466 kts 110°
2026-05-05 12:41 50.92042 3.59580 32033 ft 469 kts 110°
2026-05-05 12:41 50.91101 3.64544 32134 ft 472 kts 110°
2026-05-05 12:42 50.89186 3.74571 32375 ft 476 kts 111°
2026-05-05 12:42 50.88227 3.79528 32551 ft 477 kts 111°
2026-05-05 12:42 50.87251 3.84552 32769 ft 477 kts 111°
2026-05-05 12:43 50.86273 3.89577 32993 ft 477 kts 111°
2026-05-05 12:43 50.85285 3.94645 33223 ft 476 kts 111°
2026-05-05 12:43 50.84318 3.99598 33472 ft 476 kts 111°
2026-05-05 12:43 50.83336 4.04613 33716 ft 475 kts 112°
2026-05-05 12:44 50.82363 4.09575 33951 ft 474 kts 112°
2026-05-05 12:44 50.81380 4.14578 34138 ft 474 kts 112°
2026-05-05 12:44 50.80402 4.19541 34272 ft 475 kts 112°
2026-05-05 12:44 50.79416 4.24522 34479 ft 473 kts 111°
2026-05-05 12:45 50.78484 4.29231 34738 ft 471 kts 111°
2026-05-05 12:45 50.77474 4.34319 34879 ft 471 kts 111°
2026-05-05 12:45 50.75482 4.44301 35043 ft 474 kts 111°
2026-05-05 12:46 50.74484 4.49284 35166 ft 474 kts 111°
2026-05-05 12:46 50.73493 4.54220 35284 ft 474 kts 111°
2026-05-05 12:46 50.71495 4.64190 35471 ft 475 kts 111°
2026-05-05 12:47 50.69558 4.74189 35571 ft 479 kts 110°
2026-05-05 12:47 50.68598 4.79171 35689 ft 479 kts 110°
2026-05-05 12:47 50.67630 4.84178 35807 ft 478 kts 110°
2026-05-05 12:48 50.66654 4.89197 35909 ft 479 kts 111°
2026-05-05 12:48 50.65665 4.94263 35990 ft 479 kts 111°
2026-05-05 12:48 50.64671 4.99214 36103 ft 479 kts 111°
2026-05-05 12:48 50.63642 5.04208 36199 ft 479 kts 111°
2026-05-05 12:49 50.62606 5.09178 36308 ft 479 kts 111°
2026-05-05 12:49 50.61563 5.14173 36385 ft 479 kts 112°
2026-05-05 12:49 50.60519 5.19177 36495 ft 479 kts 112°
2026-05-05 12:49 50.59481 5.24163 36596 ft 479 kts 112°
2026-05-05 12:50 50.57404 5.34136 36764 ft 479 kts 112°
2026-05-05 12:50 50.55332 5.44040 36894 ft 480 kts 112°
2026-05-05 12:51 50.53239 5.54003 37047 ft 480 kts 112°
2026-05-05 12:51 50.51307 5.64061 37091 ft 485 kts 106°
2026-05-05 12:52 50.49901 5.74450 37369 ft 483 kts 105°
2026-05-05 12:52 50.48583 5.84777 37461 ft 483 kts 105°
2026-05-05 12:53 50.47255 5.95028 37539 ft 483 kts 105°
2026-05-05 12:53 50.45895 6.05361 37677 ft 483 kts 105°
2026-05-05 12:54 50.44529 6.15660 37856 ft 481 kts 105°
2026-05-05 12:54 50.43848 6.20764 37905 ft 481 kts 105°
2026-05-05 12:55 50.42462 6.31111 37992 ft 481 kts 105°
2026-05-05 12:55 50.41086 6.41328 38087 ft 481 kts 105°
2026-05-05 12:56 50.39676 6.51589 38101 ft 482 kts 106°
2026-05-05 12:56 50.38240 6.61896 38121 ft 483 kts 106°
2026-05-05 12:57 50.36833 6.71970 38215 ft 483 kts 106°
2026-05-05 12:57 50.35392 6.82229 38264 ft 483 kts 106°
2026-05-05 12:58 50.33941 6.92497 38337 ft 483 kts 106°
2026-05-05 12:58 50.32492 7.02672 38332 ft 484 kts 106°
2026-05-05 12:59 50.31000 7.13083 38411 ft 483 kts 106°
2026-05-05 12:59 50.29532 7.23264 38472 ft 483 kts 106°
2026-05-05 13:00 50.27312 7.38533 38499 ft 483 kts 107°
2026-05-05 13:01 50.24290 7.59054 38585 ft 483 kts 107°
2026-05-05 13:01 50.22776 7.69238 38598 ft 483 kts 107°
2026-05-05 13:02 50.21249 7.79449 38635 ft 483 kts 107°
2026-05-05 13:02 50.19950 7.88082 38616 ft 484 kts 107°
2026-05-05 13:03 50.18401 7.98316 38665 ft 484 kts 107°
2026-05-05 13:03 50.16843 8.08541 38699 ft 484 kts 107°
2026-05-05 13:04 50.15278 8.18742 38735 ft 484 kts 107°
2026-05-05 13:04 50.13713 8.28886 38743 ft 484 kts 107°
2026-05-05 13:05 50.12128 8.39092 38763 ft 485 kts 107°
2026-05-05 13:05 50.10530 8.49318 38796 ft 483 kts 107°
2026-05-05 13:06 50.08934 8.59473 38805 ft 484 kts 107°
2026-05-05 13:06 50.07327 8.69624 38815 ft 484 kts 108°
2026-05-05 13:07 50.05591 8.79700 38828 ft 481 kts 114°
2026-05-05 13:07 50.03038 8.89161 38823 ft 478 kts 118°
2026-05-05 13:08 50.00302 8.98524 38822 ft 477 kts 118°
2026-05-05 13:08 49.97524 9.07895 38820 ft 478 kts 118°
2026-05-05 13:09 49.94745 9.17278 38815 ft 477 kts 118°
2026-05-05 13:09 49.91969 9.26644 38819 ft 478 kts 118°
2026-05-05 13:10 49.89184 9.36017 38820 ft 479 kts 118°
2026-05-05 13:10 49.86403 9.45338 38821 ft 478 kts 118°
2026-05-05 13:11 49.83607 9.54676 38819 ft 478 kts 118°
2026-05-05 13:11 49.81250 9.64366 38815 ft 482 kts 111°
2026-05-05 13:12 49.79256 9.74284 38816 ft 483 kts 110°
2026-05-05 13:12 49.77305 9.84229 38823 ft 483 kts 110°
2026-05-05 13:13 49.75339 9.94177 38804 ft 482 kts 111°
2026-05-05 13:13 49.73368 10.04041 38813 ft 482 kts 111°
2026-05-05 13:14 49.71377 10.13934 38815 ft 483 kts 111°
2026-05-05 13:14 49.69374 10.23833 38811 ft 483 kts 111°
2026-05-05 13:15 49.67358 10.33752 38807 ft 484 kts 111°
2026-05-05 13:15 49.65325 10.43700 38801 ft 484 kts 111°
2026-05-05 13:16 49.63303 10.53552 38803 ft 485 kts 111°
2026-05-05 13:16 49.61262 10.63442 38805 ft 485 kts 111°
2026-05-05 13:17 49.59209 10.73343 38799 ft 485 kts 111°
2026-05-05 13:17 49.57148 10.83237 38789 ft 485 kts 111°
2026-05-05 13:18 49.55074 10.93138 38803 ft 485 kts 111°
2026-05-05 13:18 49.52994 11.03022 38801 ft 485 kts 111°
2026-05-05 13:19 49.50925 11.12803 38801 ft 486 kts 112°
2026-05-05 13:19 49.48823 11.22701 38800 ft 486 kts 112°
2026-05-05 13:20 49.46563 11.32458 38782 ft 484 kts 116°
2026-05-05 13:20 49.43844 11.41955 38775 ft 484 kts 118°
2026-05-05 13:21 49.41099 11.51406 38766 ft 485 kts 117°
2026-05-05 13:21 49.38410 11.60919 38758 ft 486 kts 117°
2026-05-05 13:22 49.35766 11.70387 38762 ft 485 kts 117°
2026-05-05 13:22 49.33101 11.79918 38763 ft 486 kts 117°
2026-05-05 13:23 49.30425 11.89439 38760 ft 487 kts 117°
2026-05-05 13:23 49.27727 11.98988 38755 ft 488 kts 117°
2026-05-05 13:24 49.25027 12.08506 38746 ft 488 kts 117°
2026-05-05 13:24 49.22311 12.18043 38754 ft 488 kts 117°
2026-05-05 13:25 49.19588 12.27564 38751 ft 489 kts 117°
2026-05-05 13:25 49.16861 12.37064 38751 ft 490 kts 117°
2026-05-05 13:26 49.14114 12.46600 38740 ft 489 kts 117°
2026-05-05 13:26 49.11365 12.56099 38752 ft 490 kts 117°
2026-05-05 13:27 49.08598 12.65625 38746 ft 491 kts 117°
2026-05-05 13:27 49.05823 12.75138 38746 ft 491 kts 117°
2026-05-05 13:28 49.03041 12.84642 38752 ft 491 kts 117°
2026-05-05 13:28 49.00245 12.94154 38751 ft 490 kts 117°
2026-05-05 13:29 48.97451 13.03624 38755 ft 490 kts 117°
2026-05-05 13:29 48.94675 13.12994 38757 ft 490 kts 117°
2026-05-05 13:30 48.91864 13.22448 38752 ft 490 kts 117°
2026-05-05 13:30 48.89047 13.31883 38759 ft 490 kts 117°
2026-05-05 13:31 48.86211 13.41344 38753 ft 491 kts 117°
2026-05-05 13:31 48.83372 13.50784 38759 ft 492 kts 117°
2026-05-05 13:32 48.80510 13.60261 38762 ft 493 kts 117°
2026-05-05 13:32 48.77646 13.69704 38756 ft 493 kts 117°
2026-05-05 13:33 48.74795 13.79075 38761 ft 493 kts 117°
2026-05-05 13:33 48.71917 13.88499 38763 ft 493 kts 117°
2026-05-05 13:34 48.69018 13.97954 38760 ft 493 kts 117°
2026-05-05 13:34 48.66183 14.07333 38757 ft 493 kts 116°
2026-05-05 13:35 48.63361 14.16793 38759 ft 493 kts 116°
2026-05-05 13:35 48.60531 14.26236 38760 ft 493 kts 117°
2026-05-05 13:36 48.57677 14.35693 38755 ft 493 kts 117°
2026-05-05 13:36 48.54824 14.45095 38747 ft 493 kts 117°
2026-05-05 13:37 48.51952 14.54526 38753 ft 493 kts 117°
2026-05-05 13:37 48.49099 14.63858 38751 ft 493 kts 117°
2026-05-05 13:38 48.46219 14.73247 38746 ft 493 kts 117°
2026-05-05 13:38 48.43339 14.82597 38745 ft 493 kts 117°
2026-05-05 13:39 48.40445 14.91962 38749 ft 492 kts 117°
2026-05-05 13:39 48.37551 15.01290 38745 ft 492 kts 117°
2026-05-05 13:40 48.34644 15.10623 38749 ft 492 kts 117°
2026-05-05 13:40 48.31737 15.19921 38743 ft 492 kts 117°
2026-05-05 13:41 48.28828 15.29194 38750 ft 492 kts 117°
2026-05-05 13:41 48.25902 15.38483 38747 ft 492 kts 117°
2026-05-05 13:42 48.22964 15.47779 38747 ft 493 kts 117°
2026-05-05 13:42 48.20035 15.57011 38742 ft 493 kts 117°
2026-05-05 13:43 48.17065 15.66336 38753 ft 493 kts 117°
2026-05-05 13:43 48.14099 15.75615 38757 ft 494 kts 117°
2026-05-05 13:44 48.11123 15.84891 38755 ft 495 kts 118°
2026-05-05 13:44 48.08149 15.94128 38760 ft 496 kts 117°
2026-05-05 13:45 48.05149 16.03413 38762 ft 496 kts 117°
2026-05-05 13:45 48.02143 16.12684 38771 ft 495 kts 118°
2026-05-05 13:46 47.99135 16.21927 38785 ft 494 kts 118°
2026-05-05 13:46 47.96124 16.31142 38780 ft 495 kts 118°
2026-05-05 13:47 47.93112 16.40325 38783 ft 495 kts 118°
2026-05-05 13:47 47.90074 16.49556 38800 ft 496 kts 118°
2026-05-05 13:48 47.87025 16.58788 38802 ft 497 kts 117°
2026-05-05 13:48 47.83966 16.68019 38809 ft 497 kts 118°
2026-05-05 13:49 47.80896 16.77248 38821 ft 498 kts 118°
2026-05-05 13:49 47.77818 16.86474 38823 ft 497 kts 118°
2026-05-05 13:50 47.75253 16.94129 38820 ft 498 kts 118°
2026-05-05 13:50 47.72168 17.03314 38822 ft 497 kts 118°
2026-05-05 13:51 47.69081 17.12535 38828 ft 497 kts 118°
2026-05-05 13:51 47.66030 17.21719 38840 ft 496 kts 117°
2026-05-05 13:52 47.62966 17.30907 38852 ft 496 kts 118°
2026-05-05 13:52 47.59897 17.40065 38873 ft 496 kts 118°
2026-05-05 13:53 47.56813 17.49226 38884 ft 496 kts 118°
2026-05-05 13:53 47.53726 17.58363 38896 ft 496 kts 117°
2026-05-05 13:54 47.50638 17.67476 38901 ft 496 kts 118°
2026-05-05 13:54 47.47536 17.76594 38901 ft 496 kts 118°
2026-05-05 13:55 47.44438 17.85671 38869 ft 495 kts 118°
2026-05-05 13:55 47.41345 17.94699 38881 ft 495 kts 118°
2026-05-05 13:56 47.38227 18.03772 38884 ft 495 kts 118°
2026-05-05 13:56 47.35100 18.12839 38888 ft 496 kts 118°
2026-05-05 13:57 47.31967 18.21889 38894 ft 495 kts 118°
2026-05-05 13:57 47.28850 18.30865 38891 ft 494 kts 118°
2026-05-05 13:58 47.25716 18.39858 38893 ft 494 kts 118°
2026-05-05 13:58 47.22572 18.48848 38891 ft 494 kts 118°
2026-05-05 13:59 47.17848 18.62300 38897 ft 492 kts 118°
2026-05-05 14:00 47.13126 18.75676 38903 ft 492 kts 118°
2026-05-05 14:00 47.09972 18.84575 38905 ft 491 kts 118°
2026-05-05 14:01 47.06806 18.93472 38908 ft 491 kts 118°
2026-05-05 14:01 47.03636 19.02358 38909 ft 491 kts 118°
2026-05-05 14:02 47.00483 19.11164 38913 ft 491 kts 118°
2026-05-05 14:02 46.97299 19.20027 38927 ft 491 kts 118°
2026-05-05 14:03 46.94119 19.28848 38911 ft 490 kts 118°
2026-05-05 14:03 46.90925 19.37678 38931 ft 490 kts 118°
2026-05-05 14:04 46.87738 19.46463 38916 ft 490 kts 118°
2026-05-05 14:04 46.84530 19.55275 38930 ft 490 kts 118°
2026-05-05 14:05 46.81319 19.64067 38910 ft 490 kts 118°
2026-05-05 14:05 46.78127 19.72776 38943 ft 490 kts 118°
2026-05-05 14:06 46.74902 19.81547 38925 ft 489 kts 118°
2026-05-05 14:06 46.71809 19.89933 38920 ft 490 kts 118°
2026-05-05 14:07 46.68543 19.98796 38938 ft 489 kts 118°
2026-05-05 14:07 46.65355 20.07377 38933 ft 490 kts 119°
2026-05-05 14:08 46.62099 20.16092 38929 ft 490 kts 118°
2026-05-05 14:08 46.58842 20.24805 38931 ft 490 kts 119°
2026-05-05 14:09 46.55674 20.33259 38933 ft 490 kts 119°
2026-05-05 14:09 46.52423 20.41906 38938 ft 490 kts 119°
2026-05-05 14:10 46.49152 20.50576 38941 ft 490 kts 119°
2026-05-05 14:10 46.45909 20.59139 38939 ft 488 kts 121°
2026-05-05 14:11 46.42731 20.67436 38932 ft 490 kts 118°
2026-05-05 14:11 46.39381 20.76298 38936 ft 491 kts 119°
2026-05-05 14:12 46.36080 20.84960 38928 ft 491 kts 119°
2026-05-05 14:12 46.32779 20.93575 38955 ft 491 kts 119°
2026-05-05 14:13 46.29460 21.02204 38943 ft 491 kts 119°
2026-05-05 14:13 46.26135 21.10826 38968 ft 491 kts 119°
2026-05-05 14:14 46.23206 21.19455 38977 ft 491 kts 112°
2026-05-05 14:14 46.20635 21.28289 38967 ft 491 kts 113°
2026-05-05 14:15 46.17821 21.37347 38967 ft 492 kts 114°
2026-05-05 14:15 46.14958 21.46317 38963 ft 492 kts 114°
2026-05-05 14:16 46.12087 21.55279 38958 ft 492 kts 114°
2026-05-05 14:16 46.09221 21.64224 38946 ft 492 kts 114°
2026-05-05 14:17 46.06346 21.73180 38959 ft 492 kts 114°
2026-05-05 14:17 46.03472 21.82100 38945 ft 492 kts 114°
2026-05-05 14:18 46.00588 21.91018 38973 ft 492 kts 114°
2026-05-05 14:18 45.97693 21.99941 38952 ft 492 kts 114°
2026-05-05 14:19 45.94794 22.08845 38971 ft 491 kts 114°
2026-05-05 14:19 45.92087 22.17134 38957 ft 491 kts 114°
2026-05-05 14:20 45.89183 22.25994 38961 ft 491 kts 114°
2026-05-05 14:20 45.86286 22.34805 38971 ft 491 kts 114°
2026-05-05 14:21 45.83367 22.43652 38965 ft 491 kts 114°
2026-05-05 14:21 45.80429 22.52525 38964 ft 491 kts 114°
2026-05-05 14:22 45.77528 22.61259 38967 ft 491 kts 114°
2026-05-05 14:22 45.74596 22.70056 38972 ft 491 kts 114°
2026-05-05 14:23 45.71652 22.78862 38969 ft 491 kts 114°
2026-05-05 14:23 45.68706 22.87638 38966 ft 491 kts 114°
2026-05-05 14:24 45.65718 22.96514 38968 ft 492 kts 114°
2026-05-05 14:24 45.62736 23.05343 38970 ft 492 kts 114°
2026-05-05 14:25 45.59759 23.14129 38983 ft 492 kts 114°
2026-05-05 14:25 45.56787 23.22868 38981 ft 493 kts 114°
2026-05-05 14:26 45.53773 23.31699 38991 ft 494 kts 115°
2026-05-05 14:26 45.50764 23.40489 38999 ft 494 kts 115°
2026-05-05 14:27 45.47735 23.49309 39001 ft 493 kts 115°
2026-05-05 14:27 45.44735 23.58012 39006 ft 493 kts 115°
2026-05-05 14:28 45.41687 23.66831 39005 ft 493 kts 115°
2026-05-05 14:28 45.38656 23.75570 39003 ft 493 kts 115°
2026-05-05 14:29 45.35640 23.84237 39003 ft 493 kts 115°
2026-05-05 14:29 45.32562 23.93054 39000 ft 493 kts 115°
2026-05-05 14:30 45.29512 24.01760 38993 ft 493 kts 115°
2026-05-05 14:30 45.26466 24.10427 38994 ft 493 kts 115°
2026-05-05 14:31 45.23404 24.19116 38984 ft 493 kts 115°
2026-05-05 14:31 45.20328 24.27812 38982 ft 494 kts 115°
2026-05-05 14:32 45.17253 24.36478 38982 ft 494 kts 115°
2026-05-05 14:32 45.14147 24.45204 38979 ft 494 kts 115°
2026-05-05 14:33 45.11047 24.53885 38982 ft 494 kts 115°
2026-05-05 14:33 45.07941 24.62556 38980 ft 494 kts 115°
2026-05-05 14:34 45.04823 24.71229 38978 ft 494 kts 115°
2026-05-05 14:34 45.01694 24.79909 38983 ft 495 kts 116°
2026-05-05 14:35 44.98567 24.88554 38983 ft 495 kts 116°
2026-05-05 14:35 44.95448 24.97148 38983 ft 494 kts 116°
2026-05-05 14:36 44.92307 25.05779 38989 ft 494 kts 116°
2026-05-05 14:36 44.89665 25.13016 38987 ft 494 kts 116°
2026-05-05 14:37 44.86729 25.21036 38993 ft 494 kts 116°
2026-05-05 14:37 44.83572 25.29633 38997 ft 493 kts 116°
2026-05-05 14:38 44.80428 25.38167 38992 ft 493 kts 116°
2026-05-05 14:38 44.77269 25.46718 38996 ft 493 kts 116°
2026-05-05 14:39 44.74098 25.55271 38994 ft 492 kts 116°
2026-05-05 14:39 44.70941 25.63764 38999 ft 490 kts 116°
2026-05-05 14:40 44.67772 25.72260 39001 ft 490 kts 116°
2026-05-05 14:40 44.64640 25.80633 39019 ft 491 kts 116°
2026-05-05 14:41 44.61467 25.89089 39014 ft 489 kts 116°
2026-05-05 14:41 44.58285 25.97542 39018 ft 489 kts 116°
2026-05-05 14:42 44.55102 26.05974 39026 ft 489 kts 116°
2026-05-05 14:42 44.51920 26.14376 39018 ft 489 kts 116°
2026-05-05 14:43 44.48716 26.22812 39014 ft 489 kts 116°
2026-05-05 14:43 44.45648 26.30866 38993 ft 489 kts 116°
2026-05-05 14:44 44.42475 26.39172 39009 ft 489 kts 116°
2026-05-05 14:44 44.39225 26.47654 39007 ft 489 kts 116°
2026-05-05 14:45 44.36002 26.56036 39007 ft 489 kts 116°
2026-05-05 14:45 44.32865 26.64173 39007 ft 489 kts 116°
2026-05-05 14:46 44.29631 26.72538 39007 ft 489 kts 116°
2026-05-05 14:46 44.26632 26.81047 39008 ft 487 kts 110°
2026-05-05 14:47 44.24011 26.89756 39008 ft 487 kts 111°
2026-05-05 14:47 44.21357 26.98425 39010 ft 487 kts 111°
2026-05-05 14:48 44.18690 27.07103 39010 ft 488 kts 111°
2026-05-05 14:48 44.16010 27.15814 39012 ft 488 kts 111°
2026-05-05 14:49 44.13346 27.24450 39012 ft 488 kts 111°
2026-05-05 14:49 44.10659 27.33130 39019 ft 488 kts 111°
2026-05-05 14:50 44.07970 27.41787 39012 ft 488 kts 111°
2026-05-05 14:50 44.05264 27.50469 39015 ft 487 kts 111°
2026-05-05 14:51 44.02574 27.59073 39015 ft 487 kts 111°
2026-05-05 14:51 43.99868 27.67698 39023 ft 488 kts 112°
2026-05-05 14:52 43.97148 27.76336 39023 ft 488 kts 112°
2026-05-05 14:52 43.94416 27.84986 39020 ft 488 kts 112°
2026-05-05 14:53 43.91696 27.93571 39023 ft 488 kts 112°
2026-05-05 14:53 43.88950 28.02209 39032 ft 488 kts 112°
2026-05-05 14:54 43.86204 28.10817 39031 ft 488 kts 112°
2026-05-05 14:54 43.83463 28.19382 39042 ft 488 kts 112°
2026-05-05 14:55 43.80704 28.27977 39050 ft 488 kts 112°
2026-05-05 14:55 43.77943 28.36547 39048 ft 488 kts 112°
2026-05-05 14:56 43.75175 28.45111 39055 ft 488 kts 112°
2026-05-05 14:56 43.72069 28.53435 39067 ft 489 kts 121°
2026-05-05 14:57 43.68401 28.61320 39068 ft 490 kts 121°
2026-05-05 14:57 43.64723 28.69270 39066 ft 490 kts 121°
2026-05-05 14:58 43.61057 28.77207 39063 ft 491 kts 121°
2026-05-05 14:58 43.57383 28.85133 39072 ft 491 kts 121°
2026-05-05 14:59 43.53686 28.93081 39066 ft 492 kts 121°
2026-05-05 14:59 43.49987 29.01011 39067 ft 492 kts 121°
2026-05-05 15:00 43.46901 29.07611 39069 ft 492 kts 121°
2026-05-05 15:00 43.42582 29.16824 39067 ft 492 kts 121°
2026-05-05 15:01 43.38860 29.24738 39067 ft 492 kts 121°
2026-05-05 15:01 43.35158 29.32592 39061 ft 492 kts 121°
2026-05-05 15:02 43.31421 29.40496 39065 ft 492 kts 121°
2026-05-05 15:02 43.27711 29.48323 39061 ft 492 kts 121°
2026-05-05 15:03 43.23959 29.56220 39061 ft 492 kts 121°
2026-05-05 15:03 43.20205 29.64096 39061 ft 492 kts 121°
2026-05-05 15:04 43.16468 29.71918 39061 ft 492 kts 121°
2026-05-05 15:04 43.12749 29.79682 39061 ft 492 kts 121°
2026-05-05 15:05 43.07063 29.91511 39068 ft 492 kts 121°
2026-05-05 15:06 43.03293 29.99329 39057 ft 493 kts 121°
2026-05-05 15:06 42.99511 30.07150 39058 ft 493 kts 121°
2026-05-05 15:07 42.95728 30.14954 39057 ft 494 kts 121°
2026-05-05 15:07 42.91935 30.22757 39049 ft 494 kts 121°
2026-05-05 15:08 42.88143 30.30538 39052 ft 494 kts 121°
2026-05-05 15:08 42.84322 30.38357 39051 ft 494 kts 121°
2026-05-05 15:09 42.80525 30.46108 39053 ft 494 kts 121°
2026-05-05 15:09 42.76721 30.53861 39050 ft 494 kts 121°
2026-05-05 15:10 42.73785 30.62227 39055 ft 487 kts 102°
2026-05-05 15:10 42.72723 30.71275 39048 ft 483 kts 94°
2026-05-05 15:11 42.71838 30.80309 39048 ft 485 kts 95°
2026-05-05 15:11 42.70883 30.89365 39043 ft 485 kts 95°
2026-05-05 15:12 42.69938 30.98423 39044 ft 484 kts 95°
2026-05-05 15:12 42.68993 31.07507 39043 ft 484 kts 95°
2026-05-05 15:13 42.68040 31.16607 39038 ft 484 kts 95°
2026-05-05 15:13 42.67084 31.25666 39034 ft 484 kts 95°
2026-05-05 15:14 42.66123 31.34694 39037 ft 485 kts 95°
2026-05-05 15:14 42.65148 31.43774 39031 ft 485 kts 95°
2026-05-05 15:15 42.64170 31.52823 39024 ft 484 kts 95°
2026-05-05 15:15 42.63183 31.61881 39039 ft 483 kts 95°
2026-05-05 15:16 42.62193 31.70903 39042 ft 483 kts 95°
2026-05-05 15:16 42.61199 31.79901 39038 ft 483 kts 96°
2026-05-05 15:17 42.60196 31.88907 39023 ft 484 kts 96°
2026-05-05 15:17 42.59186 31.97914 39017 ft 485 kts 96°
2026-05-05 15:18 42.58177 32.06983 39021 ft 486 kts 95°
2026-05-05 15:18 42.57174 32.16087 39021 ft 487 kts 96°
2026-05-05 15:19 42.56108 32.25190 39025 ft 487 kts 96°
2026-05-05 15:19 42.55048 32.34261 39023 ft 487 kts 96°
2026-05-05 15:20 42.53988 32.43354 39025 ft 487 kts 96°
2026-05-05 15:20 42.52925 32.52435 39027 ft 487 kts 96°
2026-05-05 15:21 42.51855 32.61514 39027 ft 487 kts 97°
2026-05-05 15:21 42.50780 32.70561 39024 ft 488 kts 97°
2026-05-05 15:22 42.49694 32.79639 39025 ft 488 kts 97°
2026-05-05 15:22 42.48784 32.87191 39025 ft 488 kts 97°
2026-05-05 15:23 42.47685 32.96263 39024 ft 488 kts 97°
2026-05-05 15:23 42.46576 33.05353 39029 ft 488 kts 97°
2026-05-05 15:24 42.45462 33.14426 39025 ft 488 kts 97°
2026-05-05 15:24 42.44345 33.23509 39028 ft 488 kts 97°
2026-05-05 15:25 42.43232 33.32400 39030 ft 489 kts 98°
2026-05-05 15:25 42.42093 33.41455 39026 ft 489 kts 98°
2026-05-05 15:26 42.40951 33.50538 39034 ft 488 kts 98°
2026-05-05 15:26 42.39797 33.59597 39035 ft 487 kts 98°
2026-05-05 15:27 42.38637 33.68654 39035 ft 487 kts 98°
2026-05-05 15:27 42.37474 33.77685 39033 ft 488 kts 98°
2026-05-05 15:28 42.36309 33.86684 39037 ft 488 kts 98°
2026-05-05 15:28 42.35136 33.95734 39037 ft 488 kts 98°
2026-05-05 15:29 42.33958 34.04746 39037 ft 488 kts 99°
2026-05-05 15:29 42.32762 34.13813 39037 ft 489 kts 99°
2026-05-05 15:30 42.31563 34.22867 39039 ft 489 kts 99°
2026-05-05 15:30 42.30363 34.31875 39040 ft 489 kts 99°
2026-05-05 15:31 42.29150 34.40925 39040 ft 489 kts 99°
2026-05-05 15:31 42.27928 34.49988 39039 ft 490 kts 99°
2026-05-05 15:32 42.26697 34.59028 39039 ft 490 kts 99°
2026-05-05 15:32 42.25457 34.68090 39039 ft 489 kts 99°
2026-05-05 15:33 42.24223 34.77059 39041 ft 490 kts 100°
2026-05-05 15:33 42.22977 34.86109 39040 ft 491 kts 100°
2026-05-05 15:34 42.21710 34.95167 39039 ft 491 kts 100°
2026-05-05 15:34 42.20443 35.04148 39039 ft 491 kts 100°
2026-05-05 15:35 42.19158 35.13231 39041 ft 490 kts 100°
2026-05-05 15:35 42.17872 35.22275 39046 ft 490 kts 100°
2026-05-05 15:36 42.16585 35.31276 39038 ft 490 kts 101°
2026-05-05 15:36 42.15293 35.40255 39040 ft 490 kts 100°
2026-05-05 15:37 42.13989 35.49333 39032 ft 490 kts 101°
2026-05-05 15:37 42.12688 35.58276 39035 ft 490 kts 101°
2026-05-05 15:38 42.11368 35.67294 39030 ft 489 kts 101°
2026-05-05 15:38 42.10047 35.76288 39024 ft 489 kts 101°
2026-05-05 15:39 42.08719 35.85285 39030 ft 490 kts 101°
2026-05-05 15:39 42.07381 35.94291 39029 ft 490 kts 102°
2026-05-05 15:40 42.06037 36.03293 39028 ft 491 kts 102°
2026-05-05 15:40 42.04685 36.12296 39029 ft 490 kts 102°
2026-05-05 15:41 42.03327 36.21287 39027 ft 490 kts 102°
2026-05-05 15:41 42.01962 36.30271 39026 ft 490 kts 102°
2026-05-05 15:42 42.00599 36.39191 39023 ft 490 kts 102°
2026-05-05 15:42 41.99218 36.48190 39024 ft 490 kts 103°
2026-05-05 15:43 41.97831 36.57170 39023 ft 490 kts 102°
2026-05-05 15:43 41.96443 36.66108 39024 ft 489 kts 102°
2026-05-05 15:44 41.95048 36.75041 39024 ft 489 kts 103°
2026-05-05 15:44 41.93642 36.84004 39024 ft 489 kts 103°
2026-05-05 15:45 41.92230 36.92948 39026 ft 490 kts 103°
2026-05-05 15:45 41.90826 37.01892 39025 ft 490 kts 101°
2026-05-05 15:46 41.90293 37.10982 39025 ft 491 kts 92°
2026-05-05 15:46 41.90143 37.20129 39025 ft 491 kts 92°
2026-05-05 15:47 41.90025 37.29317 39021 ft 492 kts 92°
2026-05-05 15:47 41.89891 37.38523 39025 ft 492 kts 92°
2026-05-05 15:48 41.89741 37.47652 39026 ft 492 kts 92°
2026-05-05 15:48 41.89579 37.56834 39026 ft 492 kts 93°
2026-05-05 15:49 41.89412 37.65994 39026 ft 492 kts 93°
2026-05-05 15:49 41.89235 37.75243 39025 ft 493 kts 93°
2026-05-05 15:50 41.89052 37.84436 39025 ft 493 kts 93°
2026-05-05 15:50 41.88864 37.93581 39024 ft 493 kts 93°
2026-05-05 15:51 41.88666 38.02807 39017 ft 493 kts 94°
2026-05-05 15:51 41.88461 38.12009 39022 ft 495 kts 94°
2026-05-05 15:52 41.88248 38.21233 39020 ft 496 kts 94°
2026-05-05 15:52 41.88028 38.30480 39021 ft 496 kts 94°
2026-05-05 15:53 41.87800 38.39710 39024 ft 496 kts 94°
2026-05-05 15:53 41.87564 38.49008 39021 ft 496 kts 94°
2026-05-05 15:54 41.87321 38.58228 39021 ft 497 kts 94°
2026-05-05 15:54 41.87070 38.67513 39023 ft 498 kts 94°
2026-05-05 15:55 41.86811 38.76788 39023 ft 498 kts 94°
2026-05-05 15:55 41.86545 38.86083 39018 ft 497 kts 94°
2026-05-05 15:56 41.86273 38.95295 39025 ft 497 kts 95°
2026-05-05 15:56 41.85992 39.04567 39026 ft 497 kts 95°
2026-05-05 15:57 41.85703 39.13843 39030 ft 497 kts 95°
2026-05-05 15:57 41.85408 39.23089 39019 ft 496 kts 95°
2026-05-05 15:58 41.85106 39.32321 39028 ft 496 kts 95°
2026-05-05 15:58 41.84798 39.41519 39016 ft 495 kts 95°
2026-05-05 15:59 41.84482 39.50737 39026 ft 495 kts 95°
2026-05-05 15:59 41.84165 39.59975 39011 ft 495 kts 95°
2026-05-05 16:00 41.83831 39.69206 39016 ft 495 kts 95°
2026-05-05 16:00 41.83490 39.78440 39026 ft 496 kts 95°
2026-05-05 16:01 41.83145 39.87630 39024 ft 496 kts 95°
2026-05-05 16:01 41.82791 39.96876 39024 ft 496 kts 95°
2026-05-05 16:02 41.82431 40.06108 39021 ft 496 kts 95°
2026-05-05 16:02 41.82067 40.15329 39021 ft 496 kts 95°
2026-05-05 16:03 41.81693 40.24574 39015 ft 496 kts 96°
2026-05-05 16:03 41.81305 40.33799 39022 ft 496 kts 96°
2026-05-05 16:04 41.80911 40.43035 39023 ft 496 kts 96°
2026-05-05 16:04 41.80513 40.52236 39019 ft 496 kts 96°
2026-05-05 16:05 41.80105 40.61511 39022 ft 496 kts 96°
2026-05-05 16:05 41.79693 40.70734 39023 ft 496 kts 96°
2026-05-05 16:06 41.79245 40.79902 39020 ft 496 kts 96°
2026-05-05 16:06 41.78779 40.89121 39018 ft 496 kts 96°
2026-05-05 16:07 41.78313 40.98313 39017 ft 495 kts 97°
2026-05-05 16:07 41.77841 41.07548 39024 ft 496 kts 97°
2026-05-05 16:08 41.77444 41.15217 39021 ft 496 kts 97°
2026-05-05 16:08 41.76961 41.24409 39018 ft 496 kts 97°
2026-05-05 16:09 41.76470 41.33621 39020 ft 496 kts 97°
2026-05-05 16:09 41.75971 41.42833 39015 ft 496 kts 97°
2026-05-05 16:10 41.75465 41.52042 39018 ft 497 kts 97°
2026-05-05 16:10 41.74950 41.61269 39019 ft 497 kts 97°
2026-05-05 16:11 41.74427 41.70530 39018 ft 497 kts 97°
2026-05-05 16:12 41.73359 41.88965 39010 ft 497 kts 97°
2026-05-05 16:13 41.71982 42.12059 39002 ft 500 kts 98°
2026-05-05 16:13 41.71411 42.21360 38998 ft 501 kts 98°
2026-05-05 16:14 41.70258 42.39916 38996 ft 500 kts 98°
2026-05-05 16:15 41.69070 42.58473 38984 ft 500 kts 98°
2026-05-05 16:16 41.67852 42.77027 38982 ft 501 kts 98°
2026-05-05 16:17 41.66919 42.90882 38983 ft 501 kts 98°
2026-05-05 16:18 41.65965 43.04799 38974 ft 501 kts 99°
2026-05-05 16:19 41.64996 43.18716 38972 ft 503 kts 99°
2026-05-05 16:19 41.64004 43.32699 38974 ft 504 kts 99°
2026-05-05 16:20 41.62655 43.51332 38972 ft 505 kts 99°
2026-05-05 16:22 41.60976 43.74054 38972 ft 507 kts 99°
2026-05-05 16:23 41.59560 43.92808 38980 ft 507 kts 100°
2026-05-05 16:23 41.58477 44.06836 38981 ft 509 kts 100°
2026-05-05 16:24 41.57743 44.16238 38977 ft 508 kts 100°
2026-05-05 16:25 41.56653 44.30326 38959 ft 508 kts 100°
2026-05-05 16:25 41.55620 44.44415 38964 ft 508 kts 100°
2026-05-05 16:26 41.54206 44.63156 38946 ft 508 kts 100°
2026-05-05 16:27 41.53486 44.72534 38946 ft 508 kts 100°
2026-05-05 16:27 41.52752 44.81962 38949 ft 508 kts 101°
2026-05-05 16:28 41.52017 44.91304 38922 ft 508 kts 101°
2026-05-05 16:28 41.51271 45.00674 38942 ft 509 kts 101°
2026-05-05 16:29 41.50515 45.10089 38930 ft 510 kts 101°
2026-05-05 16:29 41.49751 45.19502 38935 ft 510 kts 101°
2026-05-05 16:30 41.48979 45.28926 38923 ft 510 kts 101°
2026-05-05 16:30 41.48199 45.38333 38928 ft 509 kts 101°
2026-05-05 16:31 41.47104 45.47614 38907 ft 506 kts 105°
2026-05-05 16:31 41.45790 45.56851 38911 ft 506 kts 105°
2026-05-05 16:32 41.44524 45.66038 38917 ft 507 kts 105°
2026-05-05 16:32 41.43290 45.75317 38907 ft 507 kts 105°
2026-05-05 16:33 41.42070 45.84560 38910 ft 507 kts 105°
2026-05-05 16:33 41.40843 45.93789 38904 ft 507 kts 105°
2026-05-05 16:34 41.39608 46.02992 38915 ft 506 kts 105°
2026-05-05 16:34 41.38361 46.12212 38892 ft 506 kts 105°
2026-05-05 16:35 41.37111 46.21408 38913 ft 505 kts 105°
2026-05-05 16:35 41.35850 46.30626 38914 ft 505 kts 106°
2026-05-05 16:36 41.34582 46.39836 38921 ft 506 kts 106°
2026-05-05 16:36 41.33310 46.49019 38919 ft 507 kts 106°
2026-05-05 16:37 41.32029 46.58219 38916 ft 506 kts 106°
2026-05-05 16:37 41.30737 46.67433 38925 ft 506 kts 106°
2026-05-05 16:38 41.29431 46.76679 38914 ft 509 kts 106°
2026-05-05 16:38 41.28091 46.85900 38924 ft 509 kts 107°
2026-05-05 16:39 41.26704 46.95159 38936 ft 509 kts 107°
2026-05-05 16:39 41.25328 47.04342 38935 ft 508 kts 107°
2026-05-05 16:40 41.23946 47.13547 38946 ft 509 kts 107°
2026-05-05 16:40 41.22556 47.22776 38939 ft 509 kts 107°
2026-05-05 16:41 41.21160 47.31993 38935 ft 508 kts 107°
2026-05-05 16:41 41.19760 47.41197 38932 ft 508 kts 107°
2026-05-05 16:42 41.18354 47.50340 38936 ft 510 kts 107°
2026-05-05 16:42 41.16929 47.59580 38937 ft 508 kts 107°
2026-05-05 16:43 41.15512 47.68737 38936 ft 507 kts 108°
2026-05-05 16:43 41.14082 47.77907 38937 ft 509 kts 108°
2026-05-05 16:44 41.12685 47.87137 38930 ft 511 kts 104°
2026-05-05 16:44 41.12727 47.96635 38948 ft 525 kts 84°
2026-05-05 16:45 41.13691 48.01369 38940 ft 531 kts 72°
2026-05-05 16:45 41.15294 48.05791 38950 ft 534 kts 61°
2026-05-05 16:45 41.19484 48.13926 38969 ft 536 kts 56°
2026-05-05 16:46 41.23944 48.21831 38963 ft 538 kts 55°
2026-05-05 16:46 41.28443 48.29864 38981 ft 537 kts 56°
2026-05-05 16:47 41.32838 48.37852 38981 ft 539 kts 56°
2026-05-05 16:47 41.37236 48.45921 38982 ft 539 kts 56°
2026-05-05 16:48 41.41623 48.53995 38996 ft 541 kts 56°
2026-05-05 16:48 41.46048 48.62040 39001 ft 544 kts 55°
2026-05-05 16:49 41.50579 48.70088 38993 ft 545 kts 55°
2026-05-05 16:49 41.55033 48.78088 38999 ft 545 kts 57°
2026-05-05 16:50 41.59225 48.86489 38997 ft 544 kts 60°
2026-05-05 16:50 41.63349 48.94999 38998 ft 544 kts 59°
2026-05-05 16:51 41.67572 49.03454 38998 ft 544 kts 58°
2026-05-05 16:51 41.71775 49.11836 38999 ft 544 kts 59°
2026-05-05 16:52 41.75982 49.20264 38994 ft 544 kts 59°
2026-05-05 16:52 41.80157 49.28660 38996 ft 545 kts 59°
2026-05-05 16:53 41.84429 49.37066 38998 ft 546 kts 56°
2026-05-05 16:53 41.88997 49.45199 38993 ft 547 kts 54°
2026-05-05 16:54 41.93556 49.53383 38990 ft 547 kts 56°
2026-05-05 16:54 41.98054 49.61650 38997 ft 547 kts 56°
2026-05-05 16:55 42.02492 49.69861 38986 ft 544 kts 56°
2026-05-05 16:55 42.06964 49.78147 38986 ft 543 kts 56°
2026-05-05 16:56 42.11364 49.86320 38980 ft 543 kts 56°
2026-05-05 16:56 42.15058 49.93197 38983 ft 543 kts 56°
2026-05-05 16:57 42.19500 50.01488 38982 ft 544 kts 56°
2026-05-05 16:57 42.23917 50.09753 38970 ft 544 kts 56°
2026-05-05 16:58 42.28324 50.18025 38980 ft 545 kts 56°
2026-05-05 16:58 42.32754 50.26360 38980 ft 545 kts 56°
2026-05-05 16:59 42.37177 50.34707 38970 ft 545 kts 56°
2026-05-05 16:59 42.41555 50.42991 38975 ft 545 kts 56°
2026-05-05 17:00 42.45935 50.51257 38973 ft 546 kts 55°
2026-05-05 17:00 42.50674 50.59463 38966 ft 547 kts 52°
2026-05-05 17:01 42.55403 50.67538 38966 ft 548 kts 53°
2026-05-05 17:01 42.60050 50.75660 38963 ft 548 kts 54°
2026-05-05 17:02 42.64703 50.83868 38961 ft 548 kts 54°
2026-05-05 17:02 42.69340 50.92065 38959 ft 547 kts 54°
2026-05-05 17:03 42.73961 51.00251 38978 ft 547 kts 54°
2026-05-05 17:03 42.78605 51.08500 38964 ft 548 kts 54°
2026-05-05 17:04 42.83225 51.16730 38939 ft 548 kts 54°
2026-05-05 17:04 42.87874 51.25033 38954 ft 548 kts 54°
2026-05-05 17:05 42.92478 51.33278 38940 ft 547 kts 54°
2026-05-05 17:05 42.97069 51.41525 38941 ft 546 kts 54°
2026-05-05 17:06 43.01644 51.49767 38939 ft 546 kts 54°
2026-05-05 17:06 43.06233 51.58057 38935 ft 546 kts 54°
2026-05-05 17:07 43.10799 51.66325 38936 ft 546 kts 54°
2026-05-05 17:07 43.15378 51.74643 38935 ft 547 kts 54°
2026-05-05 17:08 43.19948 51.82967 38940 ft 546 kts 54°
2026-05-05 17:08 43.24489 51.91261 38918 ft 546 kts 54°
2026-05-05 17:09 43.29058 51.99631 38922 ft 546 kts 54°
2026-05-05 17:09 43.33605 52.07984 38940 ft 546 kts 54°
2026-05-05 17:10 43.38172 52.16398 38919 ft 547 kts 54°
2026-05-05 17:10 43.42706 52.24774 38914 ft 547 kts 54°
2026-05-05 17:11 43.47252 52.33196 38919 ft 547 kts 54°
2026-05-05 17:11 43.51756 52.41564 38915 ft 547 kts 54°
2026-05-05 17:12 43.56296 52.50025 38914 ft 547 kts 54°
2026-05-05 17:12 43.60821 52.58481 38911 ft 547 kts 54°
2026-05-05 17:13 43.65309 52.66892 38911 ft 547 kts 54°
2026-05-05 17:13 43.69814 52.75369 38897 ft 547 kts 55°
2026-05-05 17:14 43.74303 52.83875 38895 ft 546 kts 55°
2026-05-05 17:14 43.78771 52.92361 38912 ft 546 kts 55°
2026-05-05 17:15 43.83229 53.00846 38897 ft 546 kts 55°
2026-05-05 17:15 43.87688 53.09356 38898 ft 546 kts 55°
2026-05-05 17:16 43.92114 53.17854 38900 ft 545 kts 55°
2026-05-05 17:16 43.96560 53.26387 38902 ft 545 kts 55°
2026-05-05 17:17 44.01006 53.34941 38897 ft 544 kts 55°
2026-05-05 17:17 44.05399 53.43427 38900 ft 543 kts 55°
2026-05-05 17:18 44.09837 53.52027 38898 ft 543 kts 55°
2026-05-05 17:18 44.14237 53.60581 38901 ft 544 kts 55°
2026-05-05 17:19 44.18596 53.69176 38898 ft 543 kts 58°
2026-05-05 17:19 44.22909 53.77842 38897 ft 544 kts 58°
2026-05-05 17:20 44.27260 53.86477 38896 ft 544 kts 57°
2026-05-05 17:20 44.31634 53.95092 38895 ft 544 kts 57°
2026-05-05 17:21 44.36000 54.03693 38895 ft 544 kts 57°
2026-05-05 17:22 44.42551 54.16657 38894 ft 544 kts 57°
2026-05-05 17:22 44.46912 54.25325 38893 ft 544 kts 57°
2026-05-05 17:23 44.51230 54.33931 38886 ft 544 kts 57°
2026-05-05 17:23 44.55568 54.42604 38880 ft 543 kts 57°
2026-05-05 17:24 44.59899 54.51290 38881 ft 543 kts 57°
2026-05-05 17:24 44.64218 54.59972 38867 ft 543 kts 57°
2026-05-05 17:25 44.69282 54.67798 38877 ft 543 kts 44°
2026-05-05 17:25 44.74841 54.75034 38876 ft 542 kts 43°
2026-05-05 17:26 44.80418 54.82145 38867 ft 542 kts 43°
2026-05-05 17:26 44.85961 54.89239 38866 ft 541 kts 43°
2026-05-05 17:27 44.91527 54.96406 38862 ft 540 kts 43°
2026-05-05 17:27 44.97077 55.03585 38861 ft 540 kts 43°
2026-05-05 17:28 45.02622 55.10777 38858 ft 538 kts 43°
2026-05-05 17:28 45.07679 55.18378 38858 ft 533 kts 57°
2026-05-05 17:28 45.09551 55.22904 38857 ft 529 kts 69°
2026-05-05 17:29 45.11034 55.27687 38849 ft 529 kts 71°
2026-05-05 17:29 45.13733 55.37366 38847 ft 531 kts 72°
2026-05-05 17:30 45.16370 55.47186 38848 ft 533 kts 72°
2026-05-05 17:30 45.19005 55.56951 38846 ft 533 kts 72°
2026-05-05 17:31 45.21664 55.66753 38840 ft 533 kts 72°
2026-05-05 17:31 45.24320 55.76557 38846 ft 531 kts 72°
2026-05-05 17:32 45.26959 55.86338 38846 ft 531 kts 72°
2026-05-05 17:32 45.29592 55.96144 38845 ft 531 kts 72°
2026-05-05 17:33 45.32220 56.05976 38842 ft 532 kts 72°
2026-05-05 17:33 45.34840 56.15816 38842 ft 531 kts 72°
2026-05-05 17:34 45.37442 56.25629 38842 ft 531 kts 72°
2026-05-05 17:34 45.40023 56.35401 38849 ft 531 kts 72°
2026-05-05 17:35 45.42626 56.45299 38846 ft 532 kts 72°
2026-05-05 17:35 45.45208 56.55164 38844 ft 533 kts 72°
2026-05-05 17:36 45.47800 56.65105 38848 ft 533 kts 72°
2026-05-05 17:36 45.50357 56.74949 38845 ft 533 kts 72°
2026-05-05 17:37 45.52916 56.84846 38845 ft 533 kts 73°
2026-05-05 17:37 45.55479 56.94803 38841 ft 533 kts 73°
2026-05-05 17:38 45.58022 57.04724 38842 ft 533 kts 72°
2026-05-05 17:38 45.60556 57.14652 38845 ft 531 kts 73°
2026-05-05 17:39 45.63065 57.24521 38847 ft 531 kts 73°
2026-05-05 17:39 45.65582 57.34468 38844 ft 531 kts 73°
2026-05-05 17:40 45.68089 57.44418 38848 ft 531 kts 73°
2026-05-05 17:40 45.70573 57.54317 38847 ft 530 kts 73°
2026-05-05 17:41 45.72642 57.62598 38842 ft 530 kts 73°
2026-05-05 17:41 45.75531 57.74190 38851 ft 530 kts 73°
2026-05-05 17:42 45.77582 57.82475 38854 ft 530 kts 73°
2026-05-05 17:42 45.80037 57.92440 38855 ft 531 kts 73°
2026-05-05 17:43 45.82494 58.02449 38862 ft 531 kts 73°
2026-05-05 17:43 45.84933 58.12424 38865 ft 531 kts 73°
2026-05-05 17:44 45.87357 58.22383 38869 ft 531 kts 73°
2026-05-05 17:44 45.89785 58.32401 38872 ft 532 kts 73°
2026-05-05 17:45 45.92212 58.42459 38874 ft 532 kts 73°
2026-05-05 17:45 45.94627 58.52516 38880 ft 531 kts 73°
2026-05-05 17:46 45.97018 58.62514 38883 ft 531 kts 73°
2026-05-05 17:46 45.99410 58.72567 38884 ft 531 kts 73°
2026-05-05 17:47 46.01800 58.82656 38887 ft 531 kts 73°
2026-05-05 17:47 46.04142 58.92588 38890 ft 526 kts 73°
2026-05-05 17:48 46.06481 59.02546 38891 ft 524 kts 73°
2026-05-05 17:48 46.08812 59.12521 38890 ft 524 kts 73°
2026-05-05 17:49 46.11125 59.22463 38886 ft 523 kts 73°
2026-05-05 17:49 46.13429 59.32414 38876 ft 522 kts 73°
2026-05-05 17:50 46.15721 59.42355 38884 ft 522 kts 73°
2026-05-05 17:50 46.18001 59.52291 38902 ft 522 kts 73°
2026-05-05 17:51 46.20273 59.62238 38891 ft 522 kts 73°
2026-05-05 17:51 46.22529 59.72161 38895 ft 522 kts 73°
2026-05-05 17:52 46.24781 59.82126 38892 ft 522 kts 74°
2026-05-05 17:52 46.27009 59.92110 38904 ft 522 kts 74°
2026-05-05 17:53 46.29232 60.02114 38902 ft 523 kts 74°
2026-05-05 17:53 46.31456 60.12150 38906 ft 524 kts 74°
2026-05-05 17:54 46.33670 60.22186 38911 ft 524 kts 74°
2026-05-05 17:54 46.35874 60.32224 38910 ft 523 kts 74°
2026-05-05 17:55 46.38065 60.42252 38912 ft 524 kts 74°
2026-05-05 17:55 46.40270 60.52388 38911 ft 524 kts 74°
2026-05-05 17:56 46.42430 60.62372 38913 ft 524 kts 74°
2026-05-05 17:56 46.44597 60.72436 38910 ft 521 kts 75°
2026-05-05 17:57 46.46750 60.82480 38915 ft 520 kts 75°
2026-05-05 17:57 46.48887 60.92501 38917 ft 520 kts 75°
2026-05-05 17:58 46.51016 61.02529 38925 ft 520 kts 75°
2026-05-05 17:58 46.53121 61.12501 38913 ft 517 kts 75°
2026-05-05 17:59 46.55221 61.22488 38918 ft 517 kts 75°
2026-05-05 17:59 46.57309 61.32473 38932 ft 517 kts 75°
2026-05-05 18:00 46.59390 61.42475 38931 ft 516 kts 75°
2026-05-05 18:00 46.61457 61.52457 38931 ft 515 kts 75°
2026-05-05 18:01 46.63513 61.62438 38916 ft 514 kts 75°
2026-05-05 18:01 46.65557 61.72404 38916 ft 514 kts 75°
2026-05-05 18:02 46.67595 61.82397 38933 ft 514 kts 75°
2026-05-05 18:02 46.69608 61.92316 38917 ft 513 kts 75°
2026-05-05 18:03 46.71629 62.02320 38930 ft 513 kts 75°
2026-05-05 18:03 46.73622 62.12239 38931 ft 513 kts 76°
2026-05-05 18:04 46.75631 62.22288 38930 ft 514 kts 76°
2026-05-05 18:04 46.77613 62.32254 38932 ft 515 kts 76°
2026-05-05 18:05 46.79607 62.42330 38928 ft 515 kts 76°
2026-05-05 18:05 46.81576 62.52328 38927 ft 515 kts 76°
2026-05-05 18:06 46.83558 62.62425 38935 ft 516 kts 76°
2026-05-05 18:06 46.85520 62.72491 38934 ft 517 kts 76°
2026-05-05 18:07 46.87474 62.82586 38936 ft 516 kts 76°
2026-05-05 18:07 46.89422 62.92694 38936 ft 516 kts 76°
2026-05-05 18:08 46.91367 63.02832 38926 ft 517 kts 76°
2026-05-05 18:08 46.93289 63.12901 38942 ft 517 kts 76°
2026-05-05 18:09 46.95215 63.23044 38949 ft 517 kts 76°
2026-05-05 18:09 46.97131 63.33194 38949 ft 517 kts 76°
2026-05-05 18:10 46.99035 63.43335 38941 ft 517 kts 76°
2026-05-05 18:10 47.00935 63.53509 38943 ft 517 kts 76°
2026-05-05 18:11 47.02825 63.63683 38962 ft 517 kts 76°
2026-05-05 18:11 47.04695 63.73805 38951 ft 517 kts 76°
2026-05-05 18:12 47.06577 63.84050 38967 ft 516 kts 76°
2026-05-05 18:12 47.08424 63.94156 38950 ft 516 kts 76°
2026-05-05 18:13 47.10275 64.04345 38967 ft 516 kts 76°
2026-05-05 18:13 47.12117 64.14536 38955 ft 516 kts 76°
2026-05-05 18:14 47.13952 64.24750 38970 ft 516 kts 76°
2026-05-05 18:14 47.15764 64.34893 38957 ft 516 kts 76°
2026-05-05 18:15 47.17576 64.45096 38960 ft 516 kts 76°
2026-05-05 18:15 47.19381 64.55308 38975 ft 516 kts 76°
2026-05-05 18:16 47.21189 64.65541 38964 ft 516 kts 76°
2026-05-05 18:16 47.22986 64.75787 38968 ft 516 kts 76°
2026-05-05 18:17 47.24757 64.85941 38966 ft 516 kts 76°
2026-05-05 18:17 47.26541 64.96227 38968 ft 516 kts 76°
2026-05-05 18:18 47.28300 65.06407 38973 ft 516 kts 76°
2026-05-05 18:18 47.30056 65.16667 38977 ft 516 kts 77°
2026-05-05 18:19 47.31795 65.26903 38980 ft 515 kts 77°
2026-05-05 18:19 47.33528 65.37157 38983 ft 515 kts 77°
2026-05-05 18:20 47.35252 65.47409 38990 ft 515 kts 77°
2026-05-05 18:20 47.36962 65.57637 38987 ft 515 kts 77°
2026-05-05 18:21 47.38670 65.67915 38991 ft 515 kts 77°
2026-05-05 18:21 47.40368 65.78195 38999 ft 515 kts 77°
2026-05-05 18:22 47.42053 65.88410 38999 ft 515 kts 77°
2026-05-05 18:22 47.43806 65.98658 38998 ft 515 kts 77°
2026-05-05 18:23 47.45568 66.08926 39008 ft 515 kts 77°
2026-05-05 18:23 47.47312 66.19197 39012 ft 516 kts 77°
2026-05-05 18:24 47.49042 66.29487 39012 ft 516 kts 77°
2026-05-05 18:24 47.50753 66.39735 39018 ft 516 kts 77°
2026-05-05 18:25 47.52467 66.50058 39026 ft 516 kts 77°
2026-05-05 18:25 47.54172 66.60392 39021 ft 517 kts 77°
2026-05-05 18:26 47.55865 66.70711 39024 ft 517 kts 78°
2026-05-05 18:26 47.57536 66.81088 39026 ft 516 kts 78°
2026-05-05 18:27 47.59135 66.91424 39025 ft 515 kts 78°
2026-05-05 18:27 47.60722 67.01745 39023 ft 515 kts 78°
2026-05-05 18:28 47.63106 67.17259 39023 ft 515 kts 78°
2026-05-05 18:28 47.64691 67.27639 39024 ft 515 kts 79°
2026-05-05 18:29 47.66264 67.38001 39023 ft 514 kts 79°
2026-05-05 18:29 47.67826 67.48363 39022 ft 514 kts 79°
2026-05-05 18:30 47.69370 67.58677 39026 ft 515 kts 79°
2026-05-05 18:30 47.70912 67.69048 39026 ft 515 kts 79°
2026-05-05 18:31 47.72429 67.79438 39025 ft 515 kts 81°
2026-05-05 18:31 47.73503 67.89920 39022 ft 514 kts 84°
2026-05-05 18:32 47.74255 67.98748 39020 ft 514 kts 84°
2026-05-05 18:32 47.75194 68.09261 39023 ft 515 kts 84°
2026-05-05 18:33 47.76185 68.19816 39026 ft 515 kts 84°
2026-05-05 18:33 47.77185 68.30360 39028 ft 515 kts 84°
2026-05-05 18:34 47.78174 68.40901 39026 ft 515 kts 84°
2026-05-05 18:34 47.79151 68.51449 39024 ft 514 kts 84°
2026-05-05 18:35 47.80115 68.61983 39030 ft 514 kts 84°
2026-05-05 18:35 47.81064 68.72454 39030 ft 514 kts 84°
2026-05-05 18:36 47.81780 68.83036 39037 ft 512 kts 92°
2026-05-05 18:36 47.81709 68.93635 39036 ft 512 kts 94°
2026-05-05 18:37 47.81511 69.04231 39034 ft 512 kts 94°
2026-05-05 18:37 47.81291 69.14837 39035 ft 512 kts 94°
2026-05-05 18:38 47.81073 69.25411 39038 ft 511 kts 94°
2026-05-05 18:38 47.80854 69.35959 39044 ft 511 kts 94°
2026-05-05 18:39 47.80627 69.46458 39044 ft 510 kts 94°
2026-05-05 18:39 47.80388 69.57013 39044 ft 509 kts 94°
2026-05-05 18:40 47.80140 69.67541 39044 ft 510 kts 94°
2026-05-05 18:40 47.79883 69.78075 39049 ft 510 kts 94°
2026-05-05 18:41 47.79616 69.88594 39046 ft 509 kts 95°
2026-05-05 18:41 47.79339 69.99118 39047 ft 508 kts 95°
2026-05-05 18:42 47.79054 70.09619 39049 ft 508 kts 95°
2026-05-05 18:42 47.78758 70.20111 39050 ft 508 kts 95°
2026-05-05 18:43 47.78453 70.30611 39058 ft 507 kts 95°
2026-05-05 18:43 47.78142 70.41007 39071 ft 506 kts 95°
2026-05-05 18:44 47.77820 70.51442 39060 ft 506 kts 95°
2026-05-05 18:44 47.77489 70.61876 39070 ft 506 kts 95°
2026-05-05 18:45 47.77152 70.72334 39077 ft 506 kts 95°
2026-05-05 18:45 47.76797 70.82763 39093 ft 505 kts 95°
2026-05-05 18:46 47.76434 70.93127 39072 ft 505 kts 95°
2026-05-05 18:46 47.76062 71.03554 39096 ft 505 kts 95°
2026-05-05 18:47 47.75680 71.13992 39093 ft 505 kts 95°
2026-05-05 18:47 47.75291 71.24408 39085 ft 505 kts 95°
2026-05-05 18:48 47.74892 71.34808 39108 ft 505 kts 96°
2026-05-05 18:48 47.74486 71.45170 39104 ft 505 kts 96°
2026-05-05 18:49 47.74067 71.55582 39101 ft 505 kts 96°
2026-05-05 18:49 47.73640 71.65986 39104 ft 504 kts 96°
2026-05-05 18:50 47.73203 71.76406 39115 ft 504 kts 96°
2026-05-05 18:50 47.72753 71.86756 39117 ft 504 kts 96°
2026-05-05 18:51 47.72167 71.97116 39120 ft 504 kts 97°
2026-05-05 18:51 47.71528 72.07533 39125 ft 504 kts 97°
2026-05-05 18:52 47.70905 72.17844 39122 ft 504 kts 97°
2026-05-05 18:52 47.70282 72.28237 39131 ft 504 kts 97°
2026-05-05 18:53 47.69656 72.38586 39118 ft 503 kts 97°
2026-05-05 18:53 47.69022 72.48917 39131 ft 503 kts 97°
2026-05-05 18:54 47.68380 72.59205 39130 ft 503 kts 97°
2026-05-05 18:54 47.67725 72.69534 39132 ft 503 kts 97°
2026-05-05 18:55 47.67059 72.79903 39118 ft 503 kts 98°
2026-05-05 18:55 47.66385 72.90242 39135 ft 503 kts 98°
2026-05-05 18:56 47.65702 73.00577 39131 ft 503 kts 98°
2026-05-05 18:56 47.65014 73.10853 39133 ft 503 kts 98°
2026-05-05 18:57 47.64310 73.21205 39134 ft 503 kts 98°
2026-05-05 18:57 47.63599 73.31545 39126 ft 503 kts 98°
2026-05-05 18:58 47.62880 73.41849 39126 ft 503 kts 98°
2026-05-05 18:58 47.62150 73.52179 39125 ft 503 kts 98°
2026-05-05 18:59 47.61414 73.62462 39128 ft 503 kts 98°
2026-05-05 18:59 47.60670 73.72718 39134 ft 503 kts 98°
2026-05-05 19:00 47.59915 73.83010 39134 ft 503 kts 98°
2026-05-05 19:00 47.59149 73.93306 39128 ft 503 kts 98°
2026-05-05 19:01 47.58374 74.03606 39127 ft 502 kts 98°
2026-05-05 19:01 47.57591 74.13896 39112 ft 502 kts 98°
2026-05-05 19:02 47.56799 74.24172 39126 ft 502 kts 98°
2026-05-05 19:02 47.55999 74.34424 39116 ft 501 kts 98°
2026-05-05 19:03 47.55191 74.44662 39122 ft 499 kts 98°
2026-05-05 19:03 47.54381 74.54813 39109 ft 499 kts 98°
2026-05-05 19:04 47.53559 74.64992 39124 ft 499 kts 98°
2026-05-05 19:04 47.52725 74.75210 39119 ft 499 kts 99°
2026-05-05 19:05 47.51883 74.85407 39125 ft 498 kts 99°
2026-05-05 19:05 47.51039 74.95516 39120 ft 497 kts 99°
2026-05-05 19:06 47.50184 75.05660 39109 ft 497 kts 99°
2026-05-05 19:06 47.49319 75.15804 39120 ft 497 kts 99°
2026-05-05 19:07 47.48444 75.25953 39125 ft 497 kts 99°
2026-05-05 19:07 47.47561 75.36086 39104 ft 496 kts 99°
2026-05-05 19:08 47.46672 75.46191 39117 ft 495 kts 99°
2026-05-05 19:08 47.45776 75.56272 39117 ft 495 kts 99°
2026-05-05 19:09 47.44868 75.66370 39114 ft 495 kts 99°
2026-05-05 19:09 47.43957 75.76412 39103 ft 495 kts 99°
2026-05-05 19:10 47.43030 75.86532 39118 ft 495 kts 99°
2026-05-05 19:10 47.42102 75.96562 39101 ft 495 kts 99°
2026-05-05 19:11 47.41163 76.06610 39103 ft 495 kts 99°
2026-05-05 19:11 47.40209 76.16718 39128 ft 495 kts 99°
2026-05-05 19:12 47.39252 76.26757 39120 ft 495 kts 99°
2026-05-05 19:12 47.38285 76.36807 39116 ft 494 kts 99°
2026-05-05 19:13 47.37317 76.46782 39109 ft 493 kts 99°
2026-05-05 19:13 47.36334 76.56810 39120 ft 493 kts 99°
2026-05-05 19:14 47.35344 76.66821 39118 ft 493 kts 99°
2026-05-05 19:14 47.34345 76.76830 39120 ft 493 kts 99°
2026-05-05 19:15 47.33339 76.86818 39142 ft 493 kts 99°
2026-05-05 19:15 47.32324 76.96812 39127 ft 493 kts 100°
2026-05-05 19:16 47.31299 77.06812 39124 ft 493 kts 100°
2026-05-05 19:16 47.30627 77.16860 39127 ft 493 kts 95°
2026-05-05 19:17 47.30217 77.26961 39126 ft 493 kts 95°
2026-05-05 19:17 47.29755 77.37023 39136 ft 492 kts 95°
2026-05-05 19:18 47.29318 77.45368 39137 ft 492 kts 96°
2026-05-05 19:18 47.28763 77.55404 39138 ft 491 kts 96°
2026-05-05 19:19 47.28195 77.65455 39139 ft 491 kts 96°
2026-05-05 19:19 47.27624 77.75464 39125 ft 491 kts 96°
2026-05-05 19:20 47.27043 77.85505 39126 ft 491 kts 96°
2026-05-05 19:20 47.26459 77.95463 39129 ft 491 kts 96°
2026-05-05 19:21 47.25863 78.05463 39128 ft 490 kts 96°
2026-05-05 19:21 47.25259 78.15457 39126 ft 490 kts 96°
2026-05-05 19:22 47.24647 78.25444 39120 ft 490 kts 96°
2026-05-05 19:22 47.24025 78.35437 39116 ft 490 kts 96°
2026-05-05 19:23 47.23395 78.45418 39117 ft 489 kts 96°
2026-05-05 19:23 47.22760 78.55343 39104 ft 489 kts 96°
2026-05-05 19:24 47.22115 78.65288 39111 ft 488 kts 96°
2026-05-05 19:24 47.21459 78.75267 39125 ft 488 kts 96°
2026-05-05 19:25 47.20798 78.85187 39115 ft 488 kts 96°
2026-05-05 19:25 47.20131 78.95068 39112 ft 487 kts 96°
2026-05-05 19:26 47.19452 79.04992 39112 ft 487 kts 96°
2026-05-05 19:26 47.18767 79.14896 39111 ft 487 kts 96°
2026-05-05 19:27 47.18064 79.24820 39109 ft 487 kts 96°
2026-05-05 19:27 47.17333 79.34702 39107 ft 486 kts 96°
2026-05-05 19:28 47.16599 79.44542 39107 ft 486 kts 97°
2026-05-05 19:28 47.15859 79.54410 39111 ft 486 kts 97°
2026-05-05 19:29 47.15111 79.64284 39102 ft 486 kts 97°
2026-05-05 19:29 47.14355 79.74147 39107 ft 485 kts 97°
2026-05-05 19:30 47.13592 79.83994 39111 ft 485 kts 97°
2026-05-05 19:30 47.12836 79.93807 39116 ft 485 kts 96°
2026-05-05 19:31 47.12077 80.03704 39115 ft 485 kts 97°
2026-05-05 19:31 47.11318 80.13498 39118 ft 485 kts 97°
2026-05-05 19:32 47.10544 80.23346 39113 ft 486 kts 97°
2026-05-05 19:32 47.09761 80.33198 39119 ft 486 kts 97°
2026-05-05 19:33 47.08970 80.43042 39127 ft 486 kts 97°
2026-05-05 19:33 47.08169 80.52889 39131 ft 486 kts 97°
2026-05-05 19:34 47.07359 80.62753 39127 ft 487 kts 97°
2026-05-05 19:35 47.06133 80.77488 39132 ft 487 kts 97°
2026-05-05 19:35 47.05303 80.87326 39131 ft 487 kts 97°
2026-05-05 19:36 47.04461 80.97203 39142 ft 487 kts 97°
2026-05-05 19:36 47.03617 81.07068 39126 ft 488 kts 97°
2026-05-05 19:37 47.02761 81.16905 39131 ft 487 kts 97°
2026-05-05 19:37 47.01894 81.26730 39132 ft 487 kts 97°
2026-05-05 19:38 47.01015 81.36630 39139 ft 487 kts 97°
2026-05-05 19:38 47.00138 81.46412 39139 ft 487 kts 97°
2026-05-05 19:39 46.99244 81.56288 39135 ft 487 kts 97°
2026-05-05 19:39 46.98343 81.66147 39133 ft 488 kts 97°
2026-05-05 19:40 46.97435 81.75986 39130 ft 488 kts 97°
2026-05-05 19:40 46.96521 81.85802 39137 ft 488 kts 98°
2026-05-05 19:41 46.95603 81.95590 39139 ft 488 kts 97°
2026-05-05 19:41 46.94663 82.05435 39137 ft 488 kts 98°
2026-05-05 19:42 46.93711 82.15244 39141 ft 488 kts 98°
2026-05-05 19:42 46.92751 82.25062 39148 ft 488 kts 98°
2026-05-05 19:43 46.91786 82.34870 39147 ft 489 kts 98°
2026-05-05 19:43 46.90809 82.44712 39145 ft 489 kts 98°
2026-05-05 19:44 46.89822 82.54565 39147 ft 489 kts 98°
2026-05-05 19:44 46.88826 82.64419 39156 ft 489 kts 98°
2026-05-05 19:45 46.87821 82.74273 39148 ft 490 kts 98°
2026-05-05 19:45 46.86739 82.84104 39153 ft 491 kts 103°
2026-05-05 19:46 46.84303 82.93369 39149 ft 490 kts 120°
2026-05-05 19:46 46.80774 83.01957 39147 ft 494 kts 123°
2026-05-05 19:47 46.77105 83.10378 39154 ft 495 kts 123°
2026-05-05 19:47 46.73408 83.18854 39146 ft 495 kts 123°
2026-05-05 19:48 46.69732 83.27331 39147 ft 494 kts 123°
2026-05-05 19:48 46.66061 83.35803 39148 ft 494 kts 123°
2026-05-05 19:49 46.62237 83.44064 39143 ft 494 kts 127°
2026-05-05 19:49 46.58109 83.52056 39139 ft 495 kts 128°
2026-05-05 19:50 46.53971 83.60068 39148 ft 496 kts 127°
2026-05-05 19:50 46.49862 83.68151 39148 ft 497 kts 127°
2026-05-05 19:51 46.45764 83.76252 39153 ft 497 kts 127°
2026-05-05 19:51 46.41692 83.84288 39152 ft 497 kts 127°
2026-05-05 19:52 46.37568 83.92396 39161 ft 497 kts 127°
2026-05-05 19:52 46.33478 84.00410 39163 ft 497 kts 127°
2026-05-05 19:53 46.29353 84.08468 39163 ft 498 kts 127°
2026-05-05 19:53 46.25224 84.16517 39164 ft 498 kts 127°
2026-05-05 19:54 46.21087 84.24521 39164 ft 498 kts 127°
2026-05-05 19:54 46.16925 84.32511 39163 ft 497 kts 127°
2026-05-05 19:55 46.12776 84.40463 39161 ft 497 kts 127°
2026-05-05 19:55 46.08617 84.48421 39154 ft 498 kts 127°
2026-05-05 19:56 46.04444 84.56388 39154 ft 498 kts 127°
2026-05-05 19:56 46.00252 84.64368 39142 ft 500 kts 127°
2026-05-05 19:57 45.96057 84.72330 39139 ft 501 kts 127°
2026-05-05 19:57 45.91862 84.80269 39127 ft 501 kts 128°
2026-05-05 19:58 45.87640 84.88237 39137 ft 501 kts 128°
2026-05-05 19:58 45.83420 84.96178 39120 ft 501 kts 128°
2026-05-05 19:59 45.79173 85.04148 39108 ft 502 kts 128°
2026-05-05 19:59 45.74930 85.12088 39107 ft 502 kts 128°
2026-05-05 20:00 45.70691 85.19999 39101 ft 502 kts 128°